Starlink 4093

decayed
NORAD ID: 53157 Int'l Des: 2022-083 Owner: SPXS Country: US Constellation: starlink
LEOCIRCULAR
Gruppe

Über Starlink 4093

Beschreibung wird geladen...

Höhenverlauf

Altitude vs Time

uPlot chart will show altitude changes over time

Zweizeiliger Elementsatz

1 53157U 22083AB 25219.46277014 .11912883 12614-4 17237-3 0 9990
2 53157 53.2029 13.2119 0006874 286.1425 73.8871 16.48397744169478
Epoch: 7. Aug. 2025 • Age: 2927 hours

Aktueller Status

Position data unavailable
Startdatum 17. Juli 2022
Alter 3.3 years
Verglühungsdatum 8. Aug. 2025
Typ internet

Technische Details

Klassifizierung Payload
Masse 297.00 kg
Trockenmasse 275.00 kg
Gesamtmasse 297.00 kg
Länge 0.20 m
Durchmesser 2.80 m
Spannweite 9.00 m
Form Box + pan
Hersteller SPXS
Bus-Typ Starlink
Phasenstatus Reentered
Besitzer/Staat SPXS/US

Große Konstellationen

Loading constellations...